TimeCST,TemperatureF,Dew PointF,Humidity,Sea Level PressureIn,VisibilityMPH,Wind Direction,Wind SpeedMPH,Gust SpeedMPH,PrecipitationIn,Events,Conditions,WindDirDegrees,DateUTC
12:15 AM,19.4,15.8,86,29.90,7.0,WSW,4.6,-,N/A,,Overcast,240,2012-12-31 06:15:00
12:35 AM,19.4,15.8,86,29.89,7.0,WSW,4.6,-,N/A,,Overcast,250,2012-12-31 06:35:00
12:55 AM,21.2,17.6,86,29.89,7.0,WSW,4.6,-,N/A,,Overcast,240,2012-12-31 06:55:00
1:15 AM,21.2,17.6,86,29.89,7.0,SSW,4.6,-,N/A,,Overcast,210,2012-12-31 07:15:00
1:55 AM,21.2,17.6,86,29.89,7.0,Calm,Calm,-,N/A,,Overcast,0,2012-12-31 07:55:00
2:15 AM,19.4,15.8,86,29.89,7.0,Calm,Calm,-,N/A,,Mostly Cloudy,0,2012-12-31 08:15:00
2:35 AM,19.4,17.6,93,29.89,7.0,Calm,Calm,-,N/A,,Mostly Cloudy,0,2012-12-31 08:35:00
2:55 AM,19.4,15.8,86,29.89,5.0,Calm,Calm,-,N/A,,Scattered Clouds,0,2012-12-31 08:55:00
3:15 AM,19.4,17.6,93,29.89,5.0,WSW,4.6,-,N/A,,Clear,250,2012-12-31 09:15:00
3:35 AM,23.0,21.2,93,29.90,10.0,West,8.1,-,N/A,,Clear,260,2012-12-31 09:35:00
3:55 AM,26.6,21.2,80,29.90,10.0,West,9.2,-,N/A,,Clear,270,2012-12-31 09:55:00
4:15 AM,26.6,21.2,80,29.90,10.0,West,9.2,-,N/A,,Clear,270,2012-12-31 10:15:00
4:35 AM,26.6,19.4,74,29.90,10.0,West,11.5,-,N/A,,Clear,270,2012-12-31 10:35:00
4:55 AM,24.8,19.4,80,29.90,10.0,West,12.7,18.4,N/A,,Clear,270,2012-12-31 10:55:00
5:15 AM,23.0,19.4,86,29.92,10.0,West,10.4,-,N/A,,Clear,270,2012-12-31 11:15:00
5:55 AM,21.2,17.6,86,29.93,10.0,West,8.1,-,N/A,,Clear,270,2012-12-31 11:55:00
6:15 AM,21.2,17.6,86,29.95,10.0,West,10.4,16.1,N/A,,Scattered Clouds,280,2012-12-31 12:15:00
6:55 AM,21.2,15.8,80,29.96,10.0,WNW,12.7,17.3,N/A,,Scattered Clouds,290,2012-12-31 12:55:00
7:15 AM,21.2,15.8,80,29.98,7.0,WNW,11.5,18.4,N/A,,Mostly Cloudy,290,2012-12-31 13:15:00
7:35 AM,21.2,17.6,86,29.97,7.0,WNW,12.7,16.1,N/A,,Overcast,290,2012-12-31 13:35:00
7:55 AM,21.2,17.6,86,29.97,5.0,WNW,13.8,19.6,N/A,,Haze,300,2012-12-31 13:55:00
8:15 AM,21.2,17.6,86,29.98,5.0,WNW,10.4,19.6,N/A,,Haze,290,2012-12-31 14:15:00
8:35 AM,21.2,17.6,86,29.99,5.0,WNW,8.1,18.4,N/A,,Haze,300,2012-12-31 14:35:00
8:55 AM,21.2,15.8,80,29.99,7.0,WNW,13.8,20.7,N/A,,Overcast,300,2012-12-31 14:55:00
9:15 AM,21.2,15.8,80,30.01,7.0,WNW,10.4,18.4,N/A,,Overcast,300,2012-12-31 15:15:00
9:35 AM,21.2,15.8,80,30.02,7.0,WNW,8.1,-,N/A,,Overcast,300,2012-12-31 15:35:00
9:55 AM,21.2,14.0,74,30.02,7.0,WNW,13.8,20.7,N/A,Snow,Light Snow,290,2012-12-31 15:55:00
10:15 AM,21.2,14.0,74,30.03,10.0,WNW,10.4,-,N/A,Snow,Light Snow,300,2012-12-31 16:15:00
10:35 AM,21.2,14.0,74,30.04,10.0,WNW,10.4,-,N/A,,Overcast,300,2012-12-31 16:35:00
10:55 AM,23.0,14.0,68,30.04,10.0,WNW,6.9,-,N/A,Snow,Light Snow,300,2012-12-31 16:55:00
11:15 AM,23.0,12.2,63,30.03,10.0,WNW,9.2,-,N/A,Snow,Light Snow,300,2012-12-31 17:15:00
11:35 AM,23.0,12.2,63,30.03,10.0,NW,12.7,-,N/A,,Overcast,310,2012-12-31 17:35:00
11:55 AM,23.0,12.2,63,30.02,10.0,WNW,11.5,18.4,N/A,,Overcast,290,2012-12-31 17:55:00
12:15 PM,23.0,10.4,59,30.01,10.0,WNW,11.5,-,N/A,,Mostly Cloudy,290,2012-12-31 18:15:00
12:55 PM,23.0,10.4,59,30.01,10.0,WNW,11.5,-,N/A,,Mostly Cloudy,290,2012-12-31 18:55:00
1:15 PM,23.0,10.4,59,30.01,10.0,WNW,8.1,-,N/A,,Scattered Clouds,290,2012-12-31 19:15:00
1:35 PM,23.0,10.4,59,30.01,10.0,West,10.4,-,N/A,,Clear,280,2012-12-31 19:35:00
1:55 PM,23.0,10.4,59,30.01,10.0,WNW,9.2,-,N/A,,Clear,300,2012-12-31 19:55:00
2:15 PM,23.0,10.4,59,30.02,10.0,NW,9.2,-,N/A,,Clear,310,2012-12-31 20:15:00
2:35 PM,23.0,10.4,59,30.03,10.0,NW,9.2,-,N/A,,Clear,320,2012-12-31 20:35:00
2:55 PM,23.0,10.4,59,30.03,10.0,NW,10.4,-,N/A,,Clear,320,2012-12-31 20:55:00
3:15 PM,23.0,8.6,54,30.04,10.0,WNW,5.8,-,N/A,,Clear,300,2012-12-31 21:15:00
3:35 PM,21.2,8.6,58,30.05,10.0,WNW,10.4,-,N/A,,Clear,290,2012-12-31 21:35:00
3:55 PM,21.2,8.6,58,30.06,10.0,WNW,9.2,-,N/A,,Clear,300,2012-12-31 21:55:00
4:15 PM,19.4,8.6,63,30.06,10.0,WNW,10.4,-,N/A,,Clear,300,2012-12-31 22:15:00
4:35 PM,19.4,6.8,58,30.06,10.0,WNW,8.1,-,N/A,,Clear,300,2012-12-31 22:35:00
5:15 PM,17.6,5.0,58,30.08,10.0,WNW,4.6,-,N/A,,Clear,290,2012-12-31 23:15:00
5:35 PM,15.8,5.0,62,30.09,10.0,WNW,4.6,-,N/A,,Clear,290,2012-12-31 23:35:00
5:55 PM,15.8,5.0,62,30.09,10.0,WNW,4.6,-,N/A,,Clear,300,2012-12-31 23:55:00
6:15 PM,15.8,5.0,62,30.09,10.0,WNW,4.6,-,N/A,,Clear,290,2013-01-01 00:15:00
6:35 PM,14.0,5.0,67,30.10,10.0,West,4.6,-,N/A,,Clear,270,2013-01-01 00:35:00
6:55 PM,12.2,5.0,73,30.10,10.0,West,3.5,-,N/A,,Clear,280,2013-01-01 00:55:00
7:15 PM,12.2,3.2,67,30.11,10.0,Calm,Calm,-,N/A,,Clear,0,2013-01-01 01:15:00
7:35 PM,10.4,5.0,79,30.12,10.0,Calm,Calm,-,N/A,,Clear,0,2013-01-01 01:35:00
7:55 PM,10.4,3.2,73,30.12,10.0,Calm,Calm,-,N/A,,Clear,0,2013-01-01 01:55:00
8:15 PM,10.4,3.2,73,30.13,10.0,NNW,3.5,-,N/A,,Clear,330,2013-01-01 02:15:00
8:35 PM,5.0,1.4,85,30.13,10.0,NNW,4.6,-,N/A,,Clear,340,2013-01-01 02:35:00
8:55 PM,10.4,3.2,73,30.13,10.0,Calm,Calm,-,N/A,,Clear,0,2013-01-01 02:55:00
9:15 PM,8.6,3.2,79,30.13,10.0,Calm,Calm,-,N/A,,Clear,0,2013-01-01 03:15:00
9:35 PM,6.8,1.4,79,30.14,10.0,Calm,Calm,-,N/A,,Clear,0,2013-01-01 03:35:00
9:55 PM,8.6,1.4,73,30.14,10.0,NW,4.6,-,N/A,,Clear,320,2013-01-01 03:55:00
10:15 PM,8.6,1.4,73,30.15,10.0,NW,3.5,-,N/A,,Clear,310,2013-01-01 04:15:00
10:35 PM,5.0,-0.4,78,30.15,10.0,NW,4.6,-,N/A,,Clear,320,2013-01-01 04:35:00
10:55 PM,8.6,1.4,73,30.16,10.0,NW,4.6,-,N/A,,Clear,310,2013-01-01 04:55:00
11:15 PM,8.6,1.4,73,30.17,10.0,NW,5.8,-,N/A,,Clear,310,2013-01-01 05:15:00
11:35 PM,8.6,1.4,73,30.17,10.0,NW,5.8,-,N/A,,Clear,310,2013-01-01 05:35:00
11:55 PM,5.0,-0.4,78,30.17,10.0,NW,3.5,-,N/A,,Clear,320,2013-01-01 05:55:00